DW1779 Weather Reports


time (UTC)temp
F
wind
direction
speed
knots
gust
knots
rain 1hr
in
rain 24hr
in
rain mn
in
humidity
%
barometer
mb
20260505162036 52 19 4.3 8.7 0.00 0.10 0.10 88 1007.8
20260505161535 52 186 0.0 8.7 0.00 0.10 0.10 90 1008.0
20260505161037 52 333 1.7 10.4 0.00 0.10 0.10 89 1008.1
20260505160637 52 320 5.2 11.3 0.00 0.10 0.10 89 1008.2
20260505153055 54 341 2.6 8.7 0.00 0.10 0.10 86 1008.8
20260505152556 54 355 2.6 7.8 0.00 0.10 0.10 86 1008.9
20260505152054 54 15 1.7 7.8 0.00 0.10 0.10 85 1008.9
20260505151553 54 336 2.6 7.8 0.00 0.10 0.10 86 1008.6
20260505151053 54 46 1.7 7.0 0.00 0.10 0.10 85 1008.3
20260505150654 55 316 2.6 8.7 0.00 0.10 0.10 85 1008.4
20260505150108 55 355 3.5 8.7 0.00 0.10 0.10 85 1008.4
20260505140645 54 113 3.5 10.4 0.00 0.10 0.10 86 1007.9
20260505124554 53 43 3.5 14.8 0.00 0.10 0.10 91 1007.8
20260505124052 53 355 6.1 14.8 0.00 0.10 0.10 91 1007.9
20260505123550 53 82 6.1 20.0 0.00 0.10 0.10 91 1007.9
20260505123055 53 119 6.1 20.0 0.00 0.10 0.10 91 1007.8
20260505122543 53 44 6.1 17.4 0.00 0.10 0.10 92 1008.1
20260505122044 54 360 6.1 16.5 0.00 0.10 0.10 93 1007.8
20260505121612 54 33 4.3 11.3 0.00 0.10 0.10 93 1007.9
20260505121040 54 32 2.6 13.0 0.00 0.10 0.10 93 1007.8
20260505120641 54 360 4.3 13.0 0.00 0.10 0.10 92 1007.7
20260505120051 54 325 5.2 13.0 0.00 0.10 0.10 92 1007.7
20260505115550 55 24 3.5 14.8 0.00 0.10 0.10 92 1007.7
20260505115048 56 5 7.0 14.8 0.00 0.10 0.10 92 1007.4
20260505114547 56 331 3.5 17.4 0.01 0.10 0.10 92 1007.3
20260505114046 57 360 8.7 18.2 0.01 0.10 0.10 92 1007.0
20260505113544 58 345 7.8 18.2 0.04 0.10 0.10 93 1006.9
20260505113046 59 342 4.3 11.3 0.10 0.10 0.10 93 1006.9
20260505112541 59 329 4.3 11.3 0.10 0.10 0.10 93 1006.9
20260505112041 58 355 2.6 5.2 0.10 0.10 0.10 93 1006.9
20260505111542 58 355 1.7 5.2 0.10 0.10 0.10 93 1006.7
20260505111041 58 360 0.0 4.3 0.10 0.10 0.10 92 1006.5
20260505110637 58 311 0.9 4.3 0.10 0.10 0.10 92 1006.3
20260505102038 61 152 0.9 5.2 0.00 0.00 0.00 80 1004.6
20260505101542 61 134 1.7 7.8 0.00 0.00 0.00 80 1004.5
20260505101038 61 151 0.9 7.8 0.00 0.00 0.00 81 1004.3
20260505100638 61 159 1.7 5.2 0.00 0.00 0.00 81 1004.3
20260505100137 61 180 1.7 6.1 0.00 0.00 0.00 81 1004.2
20260505095600 61 122 0.9 6.1 0.00 0.00 0.00 81 1004.4
20260505095057 61 138 1.7 6.1 0.00 0.00 0.00 82 1004.4
20260505094557 61 143 0.9 6.1 0.00 0.00 0.00 82 1004.5
20260505094057 61 146 1.7 5.2 0.00 0.00 0.00 82 1004.3
20260505093556 61 142 0.9 5.2 0.00 0.00 0.00 83 1004.5
20260505093056 60 229 1.7 5.2 0.00 0.00 0.00 83 1004.4
20260505092558 60 184 0.9 6.1 0.00 0.00 0.00 85 1004.3
20260505092055 60 186 0.9 4.3 0.00 0.00 0.00 84 1004.7
20260505091616 60 165 0.9 5.2 0.00 0.00 0.00 85 1004.8
20260505091053 60 212 1.7 5.2 0.00 0.00 0.00 84 1004.7
20260505090654 60 124 0.9 4.3 0.00 0.00 0.00 84 1004.8
20260505090101 60 185 0.9 5.2 0.00 0.00 0.00 84 1004.9
20260505085554 60 85 0.9 5.2 0.00 0.00 0.00 84 1004.9
20260505085054 60 192 1.7 3.5 0.00 0.00 0.00 84 1004.8
20260505084554 60 169 0.9 6.1 0.00 0.00 0.00 85 1004.8
20260505084053 59 146 1.7 6.1 0.00 0.00 0.00 85 1004.8
20260505083553 59 128 1.7 4.3 0.00 0.00 0.00 85 1004.9
20260505083053 59 147 0.9 4.3 0.00 0.00 0.00 85 1004.9
20260505082551 59 125 0.9 4.3 0.00 0.00 0.00 85 1004.9
20260505082052 59 140 1.7 4.3 0.00 0.00 0.00 85 1004.8
20260505081551 60 165 0.9 5.2 0.00 0.00 0.00 84 1004.9
20260505081051 60 146 1.7 5.2 0.00 0.00 0.00 84 1004.9
20260505080650 60 143 0.0 5.2 0.00 0.00 0.00 85 1005.0
20260505080055 59 153 0.9 5.2 0.00 0.00 0.00 86 1005.3
20260505075555 58 157 0.9 1.7 0.00 0.00 0.00 87 1005.4
20260505075055 58 167 0.0 2.6 0.00 0.00 0.00 88 1005.5
20260505074554 58 119 0.0 1.7 0.00 0.00 0.00 88 1005.5
20260505074056 59 153 0.0 1.7 0.00 0.00 0.00 87 1005.7
20260505073553 59 148 0.0 0.9 0.00 0.00 0.00 86 1006.0
20260505073058 59 148 0.0 0.9 0.00 0.00 0.00 86 1006.0
20260505072550 59 165 0.0 0.9 0.00 0.00 0.00 86 1006.2
20260505072051 59 190 0.0 0.9 0.00 0.00 0.00 85 1006.3
20260505071549 59 190 0.0 0.0 0.00 0.00 0.00 85 1006.5
20260505071048 60 190 0.0 0.9 0.00 0.00 0.00 85 1006.5
20260505070649 60 190 0.0 0.9 0.00 0.00 0.00 83 1006.5
20260505070051 60 190 0.0 0.9 0.00 0.00 0.00 83 1006.4
20260505065549 60 190 0.0 0.9 0.00 0.00 0.00 82 1006.4
20260505065049 61 182 0.0 0.9 0.00 0.00 0.00 82 1006.1
20260505064548 61 182 0.0 0.9 0.00 0.00 0.00 82 1006.2
20260505064047 61 182 0.0 2.6 0.00 0.00 0.00 82 1006.0
20260505063546 61 182 0.0 2.6 0.00 0.00 0.00 81 1006.0
20260505063050 62 194 0.0 5.2 0.00 0.00 0.00 80 1005.8
20260505062545 62 188 0.9 6.1 0.00 0.00 0.00 78 1005.7
20260505062045 62 211 1.7 6.1 0.00 0.00 0.00 78 1005.6
20260505061547 62 200 0.9 4.3 0.00 0.00 0.00 79 1005.2
20260505061046 62 178 1.7 6.1 0.00 0.00 0.00 79 1004.8
20260505060645 62 173 2.6 6.1 0.00 0.00 0.00 80 1004.8
20260505060048 62 167 0.9 4.3 0.00 0.00 0.00 79 1004.9
20260505055548 62 160 0.9 4.3 0.00 0.00 0.00 77 1004.9
20260505055047 62 165 0.9 4.3 0.00 0.00 0.00 77 1004.9
20260505054613 62 140 2.6 5.2 0.00 0.00 0.00 78 1005.1
20260505054045 62 144 0.9 5.2 0.00 0.00 0.00 77 1005.5
20260505053545 62 140 0.9 7.0 0.00 0.00 0.00 77 1005.7
20260505053048 63 184 1.7 7.0 0.00 0.00 0.00 76 1005.5
20260505052546 63 203 0.0 5.2 0.00 0.00 0.00 76 1005.6
20260505052042 63 142 2.6 8.7 0.00 0.00 0.00 76 1005.6
20260505051544 63 201 1.7 8.7 0.00 0.00 0.00 75 1005.6
20260505051041 63 134 1.7 6.1 0.00 0.00 0.00 75 1005.8
20260505050640 63 171 0.0 4.3 0.00 0.00 0.00 75 1005.7
20260505041548 64 143 0.9 4.3 0.00 0.00 0.00 73 1006.3
20260505041037 64 205 0.9 4.3 0.00 0.00 0.00 73 1006.4
20260505040637 65 146 0.9 7.0 0.00 0.00 0.00 72 1006.3
20260505040051 66 180 1.7 7.0 0.00 0.00 0.00 69 1006.2
20260505035551 66 190 0.9 7.0 0.00 0.00 0.00 69 1006.2
20260505035053 67 232 1.7 10.4 0.00 0.00 0.00 68 1006.2
20260505034551 67 219 3.5 10.4 0.00 0.00 0.00 68 1006.2
20260505034050 67 161 1.7 8.7 0.00 0.00 0.00 68 1006.1
20260505033551 67 153 3.5 8.7 0.00 0.00 0.00 67 1006.1
20260505033050 67 175 2.6 8.7 0.00 0.00 0.00 67 1006.1
20260505032549 67 207 3.5 8.7 0.00 0.00 0.00 67 1006.0
20260505032054 67 187 4.3 8.7 0.00 0.00 0.00 67 1006.0
20260505031553 67 226 3.5 8.7 0.00 0.00 0.00 68 1005.9
20260505031049 67 177 2.6 9.6 0.00 0.00 0.00 67 1005.9
20260505030651 67 203 1.7 6.1 0.00 0.00 0.00 67 1005.9
20260505030057 67 168 1.7 8.7 0.00 0.00 0.00 67 1005.8
20260505025546 68 204 0.9 8.7 0.00 0.00 0.00 66 1005.7
20260505025045 68 201 2.6 7.8 0.00 0.00 0.00 65 1005.7
20260505024545 68 198 1.7 10.4 0.00 0.00 0.00 65 1005.5
20260505024045 69 209 2.6 10.4 0.00 0.00 0.00 64 1005.4
20260505023545 69 188 3.5 8.7 0.00 0.00 0.00 64 1005.1
20260505023044 69 168 3.5 7.0 0.00 0.00 0.00 64 1005.0
20260505022544 69 157 2.6 7.0 0.00 0.00 0.00 64 1004.9
20260505022045 69 188 1.7 7.0 0.00 0.00 0.00 64 1004.8
20260505021552 69 234 2.6 7.8 0.00 0.00 0.00 63 1004.8
20260505021044 70 171 3.5 9.6 0.00 0.00 0.00 63 1004.6
20260505020647 70 203 2.6 9.6 0.00 0.00 0.00 63 1004.5
20260505020051 70 209 2.6 7.8 0.00 0.00 0.00 63 1004.4
20260505015540 70 177 3.5 6.1 0.00 0.00 0.00 63 1004.4
20260505015042 69 201 2.6 5.2 0.00 0.00 0.00 64 1004.4
20260505014540 69 183 1.7 10.4 0.00 0.00 0.00 64 1004.4
20260505014039 70 171 2.6 10.4 0.00 0.00 0.00 65 1004.5
20260505013543 70 215 1.7 6.1 0.00 0.00 0.00 64 1004.5
20260505013041 70 160 1.7 6.1 0.00 0.00 0.00 64 1004.5
20260505012539 70 184 1.7 4.3 0.00 0.00 0.00 63 1004.5
20260505012039 70 182 0.9 4.3 0.00 0.00 0.00 63 1004.4
20260505011539 70 196 1.7 4.3 0.00 0.00 0.00 62 1004.5
20260505011038 70 194 0.9 5.2 0.00 0.00 0.00 62 1004.3
20260505010639 71 180 1.7 3.5 0.00 0.00 0.00 61 1004.3
20260505010104 71 147 0.9 7.0 0.00 0.00 0.00 60 1004.3
20260505005542 72 176 1.7 10.4 0.00 0.00 0.00 60 1004.3
20260505005043 72 158 3.5 10.4 0.00 0.00 0.00 60 1004.2
20260505004542 72 113 1.7 8.7 0.00 0.00 0.00 59 1004.1
20260505004041 73 196 1.7 8.7 0.00 0.00 0.00 58 1004.1
20260505003541 73 217 1.7 9.6 0.00 0.00 0.00 57 1004.1
20260505003048 74 199 1.7 18.2 0.00 0.00 0.00 57 1004.0
20260505002541 74 163 3.5 18.2 0.00 0.00 0.00 56 1004.0
20260505002041 74 238 3.5 9.6 0.00 0.00 0.00 55 1004.1
20260505001541 75 182 2.6 8.7 0.00 0.00 0.00 56 1003.9
20260505001042 75 159 5.2 12.2 0.00 0.00 0.00 54 1004.0
20260505000640 75 215 4.3 12.2 0.00 0.00 0.00 55 1004.1
20260505000045 75 214 4.3 13.9 0.00 0.00 0.00 54 1003.9
20260504235540 75 176 5.2 13.9 0.00 0.00 0.00 54 1003.9
20260504235038 75 188 3.5 11.3 0.00 0.00 0.00 54 1004.0
20260504234538 76 219 3.5 17.4 0.00 0.00 0.00 54 1004.1
20260504234037 76 175 5.2 17.4 0.00 0.00 0.00 53 1004.2
20260504233537 76 212 2.6 10.4 0.00 0.00 0.00 54 1004.2
20260504233044 76 221 5.2 13.0 0.00 0.00 0.00 53 1004.0
20260504232537 77 188 4.3 13.0 0.00 0.00 0.00 52 1004.2
20260504232036 77 175 4.3 13.0 0.00 0.00 0.00 52 1004.2
20260504231537 77 237 3.5 10.4 0.00 0.00 0.00 52 1004.2
20260504231036 77 267 2.6 13.0 0.00 0.00 0.00 53 1004.2
20260504230636 77 199 3.5 13.0 0.00 0.00 0.00 52 1004.3
20260504230109 77 178 5.2 10.4 0.00 0.00 0.00 51 1004.2
20260504225552 77 123 3.5 17.4 0.00 0.00 0.00 51 1004.1
20260504225051 77 169 4.3 17.4 0.00 0.00 0.00 51 1004.1
20260504224601 77 183 6.1 13.9 0.00 0.00 0.00 50 1004.1
20260504224049 78 259 3.5 10.4 0.00 0.00 0.00 51 1004.3
20260504223549 78 244 4.3 14.8 0.00 0.00 0.00 50 1004.1
20260504223049 78 265 7.0 17.4 0.00 0.00 0.00 49 1004.2
20260504222547 78 182 4.3 17.4 0.00 0.00 0.00 51 1004.1
20260504222046 78 180 5.2 17.4 0.00 0.00 0.00 50 1004.1
20260504221547 78 190 7.0 17.4 0.00 0.00 0.00 50 1004.1
20260504221046 78 193 5.2 17.4 0.00 0.00 0.00 50 1004.1
20260504220647 78 178 4.3 17.4 0.00 0.00 0.00 51 1004.1
20260504220053 79 248 5.2 12.2 0.00 0.00 0.00 51 1004.1
20260504215546 79 169 4.3 13.0 0.00 0.00 0.00 51 1004.0
20260504215045 79 157 2.6 14.8 0.00 0.00 0.00 52 1004.0
20260504214547 79 220 5.2 17.4 0.00 0.00 0.00 51 1004.0
20260504214045 79 212 6.1 17.4 0.00 0.00 0.00 50 1004.1
20260504213546 77 240 4.3 14.8 0.00 0.00 0.00 51 1004.1
20260504213046 77 323 6.1 13.9 0.00 0.00 0.00 52 1003.9
20260504212545 78 143 4.3 13.9 0.00 0.00 0.00 51 1004.2
20260504212045 78 298 6.1 18.2 0.00 0.00 0.00 51 1004.0
20260504211544 78 286 6.1 17.4 0.00 0.00 0.00 49 1004.1
20260504211043 78 208 6.1 17.4 0.00 0.00 0.00 50 1004.1
20260504210645 77 190 4.3 13.9 0.00 0.00 0.00 52 1004.2
20260504210059 78 235 5.2 13.9 0.00 0.00 0.00 51 1004.2
20260504205545 78 300 1.7 16.5 0.00 0.00 0.00 52 1004.2
20260504205044 78 310 6.1 16.5 0.00 0.00 0.00 51 1004.3
20260504204548 79 248 4.3 13.0 0.00 0.00 0.00 51 1004.6
20260504204044 80 115 3.5 11.3 0.00 0.00 0.00 52 1004.5
20260504203545 79 172 4.3 11.3 0.00 0.00 0.00 52 1004.8
20260504203045 78 319 4.3 10.4 0.00 0.00 0.00 52 1004.8
20260504202541 78 220 2.6 13.9 0.00 0.00 0.00 52 1005.1
20260504202040 80 233 7.0 13.9 0.00 0.00 0.00 48 1005.1
20260504201546 80 207 5.2 13.0 0.00 0.00 0.00 51 1005.3
20260504201038 80 173 3.5 18.2 0.00 0.00 0.00 51 1005.3
20260504200640 79 201 6.1 18.2 0.00 0.00 0.00 52 1005.5
20260504200050 77 192 4.3 12.2 0.00 0.00 0.00 55 1005.6
20260504195540 76 210 2.6 7.8 0.00 0.00 0.00 55 1005.7
20260504195040 76 211 4.3 12.2 0.00 0.00 0.00 53 1005.7
20260504194538 76 225 7.0 12.2 0.00 0.00 0.00 52 1005.8
20260504194037 77 147 2.6 10.4 0.00 0.00 0.00 53 1006.0
20260504193537 77 298 4.3 10.4 0.00 0.00 0.00 50 1006.1
20260504193041 78 167 2.6 10.4 0.00 0.00 0.00 55 1006.2
20260504192535 78 189 5.2 10.4 0.00 0.00 0.00 51 1006.2
20260504192037 77 205 3.5 10.4 0.00 0.00 0.00 52 1006.3
20260504191538 78 219 4.3 10.4 0.00 0.00 0.00 52 1006.3
20260504191036 79 115 3.5 18.2 0.00 0.00 0.00 50 1006.1
20260504190503 79 320 5.2 18.2 0.00 0.00 0.00 50 1006.1
20260504190101 79 262 6.1 17.4 0.00 0.00 0.00 51 1006.1
20260504190000 79 202 7.0 17.4 0.00 0.00 0.00 49 1006.2
20260504185559 79 331 5.2 16.5 0.00 0.00 0.00 49 1006.2
20260504185059 79 173 7.8 20.0 0.00 0.00 0.00 48 1006.3
20260504184600 79 196 4.3 19.1 0.00 0.00 0.00 50 1006.3
20260504184058 79 213 6.1 20.0 0.00 0.00 0.00 49 1006.2
20260504183558 79 250 3.5 20.0 0.00 0.00 0.00 52 1006.3
20260504183056 78 355 7.0 20.0 0.00 0.00 0.00 50 1006.3
20260504182559 79 163 5.2 12.2 0.00 0.00 0.00 52 1006.2
20260504182054 79 150 5.2 9.6 0.00 0.00 0.00 51 1006.3
20260504181556 78 199 3.5 12.2 0.00 0.00 0.00 50 1006.2
20260504181053 78 247 1.7 12.2 0.00 0.00 0.00 52 1006.3
20260504180654 78 294 3.5 12.2 0.00 0.00 0.00 52 1006.4
20260504180057 78 174 3.5 13.9 0.00 0.00 0.00 52 1006.4
20260504175657 78 197 4.3 13.9 0.00 0.00 0.00 51 1006.4
20260504175055 77 207 3.5 18.2 0.00 0.00 0.00 55 1006.4
20260504174557 77 190 7.8 18.2 0.00 0.00 0.00 52 1006.4
20260504174055 77 210 8.7 15.6 0.00 0.00 0.00 51 1006.4
20260504173553 77 168 3.5 16.5 0.00 0.00 0.00 53 1006.3
20260504173053 77 184 5.2 15.6 0.00 0.00 0.00 55 1006.3
20260504172552 77 147 3.5 12.2 0.00 0.00 0.00 52 1006.4
20260504172051 77 193 2.6 14.8 0.00 0.00 0.00 55 1006.6
20260504171550 76 237 3.5 18.2 0.00 0.00 0.00 55 1006.6
20260504171050 76 238 7.0 18.2 0.00 0.00 0.00 54 1006.7
20260504170648 76 240 5.2 15.6 0.00 0.00 0.00 53 1006.7